Time,TemperatureF,DewpointF,PressureIn,WindDirection,WindDirectionDegrees,WindSpeedMPH,WindSpeedGustMPH,Humidity,HourlyPrecipIn,Conditions,Clouds,dailyrainin,SoftwareType,DateUTC
2013-04-30 00:01:00,41.9,38.9,30.23,ESE,120,1.0,4.0,89,0.00,,,0.23,Wunderground v.1.15,2013-04-30 07:01:00,
2013-04-30 00:06:00,41.8,39.1,30.23,East,95,1.0,4.0,90,0.00,,,0.00,Wunderground v.1.15,2013-04-30 07:06:00,
2013-04-30 00:16:00,41.5,38.8,30.23,ESE,110,0.0,1.0,90,0.00,,,0.00,Wunderground v.1.15,2013-04-30 07:16:00,
2013-04-30 00:26:00,41.2,38.8,30.24,ESE,113,1.0,1.0,91,0.00,,,0.01,Wunderground v.1.15,2013-04-30 07:26:00,
2013-04-30 00:36:00,41.1,38.7,30.24,ESE,120,1.0,2.0,91,0.06,,,0.02,Wunderground v.1.15,2013-04-30 07:36:00,
2013-04-30 00:46:00,40.6,38.5,30.24,ESE,116,2.0,6.0,92,0.23,,,0.05,Wunderground v.1.15,2013-04-30 07:46:00,
2013-04-30 00:51:00,40.6,38.5,30.24,North,4,1.0,1.0,92,0.08,,,0.05,Wunderground v.1.15,2013-04-30 07:51:00,
2013-04-30 01:01:00,40.5,38.6,30.24,North,1,0.0,0.0,93,0.09,,,0.07,Wunderground v.1.15,2013-04-30 08:01:00,
2013-04-30 01:06:00,40.5,38.6,30.24,SSE,150,0.0,0.0,93,0.09,,,0.07,Wunderground v.1.15,2013-04-30 08:06:00,
2013-04-30 01:16:00,40.5,38.9,30.24,SSE,150,0.0,0.0,94,0.04,,,0.07,Wunderground v.1.15,2013-04-30 08:16:00,
2013-04-30 01:26:00,40.5,38.9,30.23,SSE,148,0.0,1.0,94,0.00,,,0.08,Wunderground v.1.15,2013-04-30 08:26:00,
2013-04-30 01:36:00,40.3,38.7,30.23,SSE,148,0.0,0.0,94,0.05,,,0.09,Wunderground v.1.15,2013-04-30 08:36:00,
2013-04-30 01:46:00,40.2,38.6,30.23,SE,140,0.0,1.0,94,0.04,,,0.09,Wunderground v.1.15,2013-04-30 08:46:00,
2013-04-30 01:56:00,40.1,38.5,30.23,SE,134,1.0,1.0,94,0.00,,,0.09,Wunderground v.1.15,2013-04-30 08:56:00,
2013-04-30 02:11:00,40.1,38.8,30.24,SE,128,1.0,1.0,95,0.00,,,0.09,Wunderground v.1.15,2013-04-30 09:11:00,
2013-04-30 02:16:00,40.1,38.8,30.24,SE,128,0.0,1.0,95,0.00,,,0.09,Wunderground v.1.15,2013-04-30 09:16:00,
2013-04-30 02:26:00,40.1,38.8,30.24,SE,128,0.0,0.0,95,0.00,,,0.09,Wunderground v.1.15,2013-04-30 09:26:00,
2013-04-30 02:36:00,39.8,38.5,30.24,SE,128,0.0,0.0,95,0.00,,,0.09,Wunderground v.1.15,2013-04-30 09:36:00,
2013-04-30 02:46:00,39.6,38.3,30.24,SE,126,0.0,2.0,95,0.00,,,0.09,Wunderground v.1.15,2013-04-30 09:46:00,
2013-04-30 02:56:00,39.6,38.6,30.24,SE,124,1.0,1.0,96,0.00,,,0.09,Wunderground v.1.15,2013-04-30 09:56:00,
2013-04-30 03:11:00,39.5,38.5,30.25,SE,124,0.0,0.0,96,0.00,,,0.09,Wunderground v.1.15,2013-04-30 10:11:00,
2013-04-30 03:16:00,39.3,38.3,30.25,SE,124,0.0,0.0,96,0.00,,,0.09,Wunderground v.1.15,2013-04-30 10:16:00,
2013-04-30 03:26:00,39.2,38.2,30.25,SE,124,0.0,0.0,96,0.00,,,0.09,Wunderground v.1.15,2013-04-30 10:26:00,
2013-04-30 03:36:00,38.9,37.9,30.25,SE,124,0.0,0.0,96,0.00,,,0.09,Wunderground v.1.15,2013-04-30 10:36:00,
2013-04-30 03:41:00,38.8,37.5,30.25,SE,124,0.0,0.0,95,0.00,,,0.09,Wunderground v.1.15,2013-04-30 10:41:00,
2013-04-30 03:51:00,38.5,37.2,30.26,SE,124,0.0,0.0,95,0.00,,,0.09,Wunderground v.1.15,2013-04-30 10:51:00,
2013-04-30 03:56:00,38.5,37.2,30.26,SE,124,0.0,0.0,95,0.00,,,0.09,Wunderground v.1.15,2013-04-30 10:56:00,
2013-04-30 04:11:00,38.5,37.5,30.26,SE,124,0.0,0.0,96,0.00,,,0.09,Wunderground v.1.15,2013-04-30 11:11:00,
2013-04-30 04:21:00,38.6,37.6,30.26,SE,124,0.0,0.0,96,0.00,,,0.09,Wunderground v.1.15,2013-04-30 11:21:00,
2013-04-30 04:31:00,38.8,38.0,30.26,SE,124,0.0,0.0,97,0.00,,,0.09,Wunderground v.1.15,2013-04-30 11:31:00,
2013-04-30 04:41:00,38.8,38.0,30.27,ESE,121,0.0,0.0,97,0.00,,,0.09,Wunderground v.1.15,2013-04-30 11:41:00,
2013-04-30 04:51:00,38.9,38.1,30.27,ESE,121,0.0,1.0,97,0.00,,,0.09,Wunderground v.1.15,2013-04-30 11:51:00,
2013-04-30 04:56:00,38.9,38.1,30.27,ESE,120,1.0,1.0,97,0.00,,,0.09,Wunderground v.1.15,2013-04-30 11:56:00,
2013-04-30 05:11:00,39.1,38.3,30.27,ESE,120,0.0,0.0,97,0.00,,,0.10,Wunderground v.1.15,2013-04-30 12:11:00,
2013-04-30 05:21:00,39.1,38.3,30.27,ESE,120,0.0,0.0,97,0.00,,,0.10,Wunderground v.1.15,2013-04-30 12:21:00,
2013-04-30 05:26:00,39.1,38.3,30.27,ESE,121,0.0,0.0,97,0.00,,,0.10,Wunderground v.1.15,2013-04-30 12:26:00,
2013-04-30 05:36:00,38.8,38.0,30.28,WSW,248,1.0,2.0,97,0.00,,,0.11,Wunderground v.1.15,2013-04-30 12:36:00,
2013-04-30 05:46:00,37.8,36.8,30.28,SSE,152,2.0,2.0,96,0.30,,,0.15,Wunderground v.1.15,2013-04-30 12:46:00,
2013-04-30 05:56:00,37.3,36.0,30.30,SE,131,1.0,1.0,95,0.10,,,0.17,Wunderground v.1.15,2013-04-30 12:56:00,
2013-04-30 06:01:00,37.3,36.0,30.30,SE,131,1.0,1.0,95,0.10,,,0.17,Wunderground v.1.15,2013-04-30 13:01:00,
2013-04-30 06:11:00,37.3,36.3,30.29,NNE,30,1.0,2.0,96,0.04,,,0.17,Wunderground v.1.15,2013-04-30 13:11:00,
2013-04-30 06:21:00,37.3,36.3,30.28,East,97,1.0,1.0,96,0.00,,,0.17,Wunderground v.1.15,2013-04-30 13:21:00,
2013-04-30 06:31:00,37.3,36.3,30.28,East,92,0.0,1.0,96,0.00,,,0.17,Wunderground v.1.15,2013-04-30 13:31:00,
2013-04-30 06:41:00,37.3,36.3,30.29,East,89,0.0,0.0,96,0.00,,,0.17,Wunderground v.1.15,2013-04-30 13:41:00,
2013-04-30 06:46:00,37.3,36.3,30.29,East,89,1.0,1.0,96,0.00,,,0.17,Wunderground v.1.15,2013-04-30 13:46:00,
2013-04-30 06:56:00,37.3,36.5,30.30,SW,233,1.0,4.0,97,0.00,,,0.17,Wunderground v.1.15,2013-04-30 13:56:00,
2013-04-30 07:01:00,37.3,36.5,30.30,WSW,240,1.0,1.0,97,0.00,,,0.17,Wunderground v.1.15,2013-04-30 14:01:00,
2013-04-30 07:11:00,37.5,36.7,30.31,WSW,240,0.0,1.0,97,0.00,,,0.17,Wunderground v.1.15,2013-04-30 14:11:00,
2013-04-30 07:21:00,37.9,37.1,30.32,WSW,240,1.0,1.0,97,0.00,,,0.17,Wunderground v.1.15,2013-04-30 14:21:00,
2013-04-30 07:31:00,38.2,37.4,30.32,WSW,240,0.0,0.0,97,0.00,,,0.17,Wunderground v.1.15,2013-04-30 14:31:00,
2013-04-30 07:41:00,38.3,37.5,30.33,WSW,240,0.0,0.0,97,0.00,,,0.17,Wunderground v.1.15,2013-04-30 14:41:00,
2013-04-30 07:51:00,38.5,37.7,30.33,WSW,240,0.0,0.0,97,0.00,,,0.17,Wunderground v.1.15,2013-04-30 14:51:00,
2013-04-30 07:56:00,38.8,38.0,30.33,WSW,240,0.0,1.0,97,0.00,,,0.17,Wunderground v.1.15,2013-04-30 14:56:00,
2013-04-30 08:11:00,39.3,38.5,30.33,WSW,240,1.0,1.0,97,0.00,,,0.17,Wunderground v.1.15,2013-04-30 15:11:00,
2013-04-30 08:21:00,39.6,38.8,30.34,WSW,240,0.0,0.0,97,0.00,,,0.17,Wunderground v.1.15,2013-04-30 15:21:00,
2013-04-30 08:31:00,40.1,39.3,30.34,WSW,240,0.0,0.0,97,0.00,,,0.17,Wunderground v.1.15,2013-04-30 15:31:00,
2013-04-30 08:36:00,40.2,39.4,30.34,WSW,240,0.0,1.0,97,0.00,,,0.17,Wunderground v.1.15,2013-04-30 15:36:00,
2013-04-30 08:46:00,40.2,39.4,30.34,WSW,240,0.0,0.0,97,0.00,,,0.17,Wunderground v.1.15,2013-04-30 15:46:00,
2013-04-30 08:56:00,40.6,39.8,30.35,WSW,240,0.0,0.0,97,0.00,,,0.17,Wunderground v.1.15,2013-04-30 15:56:00,
2013-04-30 09:11:00,41.5,40.2,30.35,WSW,237,0.0,0.0,95,0.00,,,0.17,Wunderground v.1.15,2013-04-30 16:11:00,
2013-04-30 09:21:00,42.2,40.9,30.36,WSW,239,0.0,0.0,95,0.00,,,0.17,Wunderground v.1.15,2013-04-30 16:21:00,
2013-04-30 09:31:00,42.8,41.2,30.36,WNW,291,0.0,0.0,94,0.00,,,0.17,Wunderground v.1.15,2013-04-30 16:31:00,
2013-04-30 09:36:00,43.1,41.5,30.36,WNW,291,0.0,1.0,94,0.00,,,0.17,Wunderground v.1.15,2013-04-30 16:36:00,
2013-04-30 09:46:00,43.3,40.6,30.36,East,96,1.0,2.0,90,0.00,,,0.17,Wunderground v.1.15,2013-04-30 16:46:00,
2013-04-30 09:56:00,43.5,40.2,30.36,East,96,0.0,1.0,88,0.00,,,0.17,Wunderground v.1.15,2013-04-30 16:56:00,
2013-04-30 10:11:00,44.1,41.1,30.37,WSW,237,0.0,4.0,89,0.00,,,0.17,Wunderground v.1.15,2013-04-30 17:11:00,
2013-04-30 10:21:00,45.1,41.5,30.37,NW,323,1.0,1.0,87,0.00,,,0.17,Wunderground v.1.15,2013-04-30 17:21:00,
2013-04-30 10:31:00,45.4,39.9,30.37,West,261,0.0,0.0,81,0.00,,,0.17,Wunderground v.1.15,2013-04-30 17:31:00,
2013-04-30 10:41:00,45.4,39.3,30.37,WNW,299,1.0,1.0,79,0.00,,,0.17,Wunderground v.1.15,2013-04-30 17:41:00,
2013-04-30 10:51:00,45.8,38.3,30.37,WSW,243,1.0,1.0,75,0.00,,,0.17,Wunderground v.1.15,2013-04-30 17:51:00,
2013-04-30 11:01:00,46.1,39.3,30.37,South,181,0.0,1.0,77,0.00,,,0.17,Wunderground v.1.15,2013-04-30 18:01:00,
2013-04-30 11:11:00,47.4,42.2,30.38,East,82,1.0,1.0,82,0.00,,,0.17,Wunderground v.1.15,2013-04-30 18:11:00,
2013-04-30 11:16:00,48.2,40.6,30.38,North,354,0.0,1.0,75,0.00,,,0.17,Wunderground v.1.15,2013-04-30 18:16:00,
2013-04-30 11:26:00,48.0,39.4,30.38,North,356,1.0,2.0,72,0.00,,,0.17,Wunderground v.1.15,2013-04-30 18:26:00,
2013-04-30 11:36:00,47.3,39.1,30.39,West,277,0.0,1.0,73,0.00,,,0.17,Wunderground v.1.15,2013-04-30 18:36:00,
2013-04-30 11:46:00,47.4,41.2,30.39,West,275,0.0,0.0,79,0.00,,,0.17,Wunderground v.1.15,2013-04-30 18:46:00,
2013-04-30 11:56:00,47.7,38.0,30.39,SSW,208,0.0,0.0,69,0.00,,,0.17,Wunderground v.1.15,2013-04-30 18:56:00,
2013-04-30 12:01:00,48.0,38.7,30.39,SW,226,0.0,0.0,70,0.00,,,0.17,Wunderground v.1.15,2013-04-30 19:01:00,
2013-04-30 12:11:00,48.5,40.2,30.39,NW,312,1.0,2.0,73,0.00,,,0.17,Wunderground v.1.15,2013-04-30 19:11:00,
2013-04-30 12:21:00,48.8,40.2,30.40,NW,316,1.0,1.0,72,0.00,,,0.17,Wunderground v.1.15,2013-04-30 19:21:00,
2013-04-30 12:31:00,48.5,39.2,30.40,SSE,160,0.0,0.0,70,0.00,,,0.17,Wunderground v.1.15,2013-04-30 19:31:00,
2013-04-30 12:41:00,48.5,40.2,30.40,South,179,0.0,0.0,73,0.00,,,0.17,Wunderground v.1.15,2013-04-30 19:41:00,
2013-04-30 12:51:00,48.5,42.3,30.40,NW,304,0.0,0.0,79,0.00,,,0.17,Wunderground v.1.15,2013-04-30 19:51:00,
2013-04-30 13:01:00,50.1,41.4,30.40,South,191,1.0,1.0,72,0.00,,,0.17,Wunderground v.1.15,2013-04-30 20:01:00,
2013-04-30 13:11:00,49.8,39.3,30.40,SSW,200,2.0,2.0,67,0.00,,,0.17,Wunderground v.1.15,2013-04-30 20:11:00,
2013-04-30 13:21:00,50.1,36.7,30.40,SE,140,1.0,1.0,60,0.00,,,0.17,Wunderground v.1.15,2013-04-30 20:21:00,
2013-04-30 13:31:00,51.4,39.6,30.40,SSE,150,1.0,2.0,64,0.00,,,0.18,Wunderground v.1.15,2013-04-30 20:31:00,
2013-04-30 13:36:00,52.2,40.4,30.40,WSW,246,1.0,2.0,64,0.00,,,0.18,Wunderground v.1.15,2013-04-30 20:36:00,
2013-04-30 13:46:00,53.1,37.8,30.40,SSW,192,2.0,6.0,56,0.00,,,0.18,Wunderground v.1.15,2013-04-30 20:46:00,
2013-04-30 13:56:00,51.9,36.2,30.40,SW,233,2.0,7.0,55,0.00,,,0.18,Wunderground v.1.15,2013-04-30 20:56:00,
2013-04-30 14:11:00,51.3,39.1,30.40,SSE,148,1.0,2.0,63,0.00,,,0.18,Wunderground v.1.15,2013-04-30 21:11:00,
2013-04-30 14:21:00,51.1,35.0,30.40,SW,229,2.0,2.0,54,0.00,,,0.18,Wunderground v.1.15,2013-04-30 21:21:00,
2013-04-30 14:31:00,51.7,34.6,30.40,SE,134,1.0,2.0,52,0.00,,,0.18,Wunderground v.1.15,2013-04-30 21:31:00,
2013-04-30 14:41:00,51.4,31.8,30.41,West,261,2.0,2.0,47,0.00,,,0.18,Wunderground v.1.15,2013-04-30 21:41:00,
2013-04-30 14:51:00,52.2,37.9,30.42,SW,232,1.0,2.0,58,0.00,,,0.18,Wunderground v.1.15,2013-04-30 21:51:00,
2013-04-30 15:01:00,53.8,33.5,30.42,West,270,2.0,2.0,46,0.00,,,0.18,Wunderground v.1.15,2013-04-30 22:01:00,
2013-04-30 15:11:00,54.2,32.7,30.41,SSE,148,3.0,3.0,44,0.00,,,0.18,Wunderground v.1.15,2013-04-30 22:11:00,
2013-04-30 15:16:00,54.7,28.9,30.41,SE,143,1.0,3.0,37,0.00,,,0.18,Wunderground v.1.15,2013-04-30 22:16:00,
2013-04-30 15:26:00,55.4,33.8,30.42,SSE,147,1.0,1.0,44,0.00,,,0.18,Wunderground v.1.15,2013-04-30 22:26:00,
2013-04-30 15:36:00,55.7,31.1,30.41,SSE,147,1.0,1.0,39,0.00,,,0.18,Wunderground v.1.15,2013-04-30 22:36:00,
2013-04-30 15:46:00,56.0,34.4,30.41,WSW,240,1.0,1.0,44,0.00,,,0.18,Wunderground v.1.15,2013-04-30 22:46:00,
2013-04-30 15:56:00,56.0,32.0,30.42,SSE,168,1.0,4.0,40,0.00,,,0.18,Wunderground v.1.15,2013-04-30 22:56:00,
2013-04-30 16:06:00,56.5,30.5,30.42,WSW,253,1.0,2.0,37,0.00,,,0.18,Wunderground v.1.15,2013-04-30 23:06:00,
2013-04-30 16:16:00,56.2,32.8,30.42,SSE,148,2.0,2.0,41,0.00,,,0.18,Wunderground v.1.15,2013-04-30 23:16:00,
2013-04-30 16:26:00,56.7,35.0,30.42,South,191,2.0,2.0,44,0.00,,,0.18,Wunderground v.1.15,2013-04-30 23:26:00,
2013-04-30 16:36:00,57.2,31.1,30.42,SSE,150,2.0,2.0,37,0.00,,,0.18,Wunderground v.1.15,2013-04-30 23:36:00,
2013-04-30 16:46:00,57.5,32.1,30.42,West,261,2.0,2.0,38,0.00,,,0.18,Wunderground v.1.15,2013-04-30 23:46:00,
2013-04-30 16:56:00,57.0,32.3,30.42,South,179,2.0,2.0,39,0.00,,,0.18,Wunderground v.1.15,2013-04-30 23:56:00,
2013-04-30 17:11:00,56.0,32.0,30.42,West,278,3.0,3.0,40,0.00,,,0.18,Wunderground v.1.15,2013-05-01 00:11:00,
2013-04-30 17:21:00,55.4,33.3,30.43,SSE,148,1.0,2.0,43,0.00,,,0.18,Wunderground v.1.15,2013-05-01 00:21:00,
2013-04-30 17:31:00,54.4,31.8,30.43,West,267,2.0,2.0,42,0.00,,,0.18,Wunderground v.1.15,2013-05-01 00:31:00,
2013-04-30 17:41:00,53.1,31.2,30.43,West,263,4.0,4.0,43,0.00,,,0.18,Wunderground v.1.15,2013-05-01 00:41:00,
2013-04-30 17:51:00,52.5,31.2,30.43,WSW,243,2.0,2.0,44,0.00,,,0.18,Wunderground v.1.15,2013-05-01 00:51:00,
2013-04-30 18:01:00,52.2,30.9,30.43,WSW,256,2.0,2.0,44,0.00,,,0.18,Wunderground v.1.15,2013-05-01 01:01:00,
2013-04-30 18:11:00,53.3,30.2,30.44,WSW,247,1.0,6.0,41,0.00,,,0.18,Wunderground v.1.15,2013-05-01 01:11:00,
2013-04-30 18:21:00,53.8,31.2,30.44,SE,136,2.0,2.0,42,0.00,,,0.18,Wunderground v.1.15,2013-05-01 01:21:00,
2013-04-30 18:31:00,53.8,32.4,30.44,WSW,237,1.0,1.0,44,0.00,,,0.18,Wunderground v.1.15,2013-05-01 01:31:00,
2013-04-30 18:41:00,52.9,31.0,30.44,West,260,1.0,1.0,43,0.00,,,0.18,Wunderground v.1.15,2013-05-01 01:41:00,
2013-04-30 18:46:00,52.3,31.0,30.44,WSW,247,1.0,2.0,44,0.00,,,0.18,Wunderground v.1.15,2013-05-01 01:46:00,
2013-04-30 18:56:00,51.3,30.7,30.44,WSW,247,0.0,1.0,45,0.00,,,0.18,Wunderground v.1.15,2013-05-01 01:56:00,
2013-04-30 19:11:00,51.0,30.9,30.44,WSW,239,1.0,1.0,46,0.00,,,0.18,Wunderground v.1.15,2013-05-01 02:11:00,
2013-04-30 19:21:00,50.8,30.7,30.45,WSW,256,0.0,0.0,46,0.00,,,0.18,Wunderground v.1.15,2013-05-01 02:21:00,
2013-04-30 19:31:00,50.5,29.9,30.45,South,189,0.0,0.0,45,0.00,,,0.18,Wunderground v.1.15,2013-05-01 02:31:00,
2013-04-30 19:36:00,50.2,30.7,30.45,South,189,0.0,0.0,47,0.00,,,0.18,Wunderground v.1.15,2013-05-01 02:36:00,
2013-04-30 19:46:00,49.9,33.0,30.45,South,189,0.0,0.0,52,0.00,,,0.18,Wunderground v.1.15,2013-05-01 02:46:00,
2013-04-30 19:51:00,49.8,32.9,30.45,South,189,0.0,0.0,52,0.00,,,0.18,Wunderground v.1.15,2013-05-01 02:51:00,
2013-04-30 20:01:00,49.4,34.3,30.45,South,189,0.0,0.0,56,0.00,,,0.18,Wunderground v.1.15,2013-05-01 03:01:00,
2013-04-30 20:11:00,48.6,35.7,30.45,South,189,0.0,0.0,61,0.00,,,0.18,Wunderground v.1.15,2013-05-01 03:11:00,
2013-04-30 20:21:00,47.9,35.1,30.46,South,189,0.0,0.0,61,0.00,,,0.18,Wunderground v.1.15,2013-05-01 03:21:00,
2013-04-30 20:31:00,47.1,34.7,30.46,South,189,0.0,0.0,62,0.00,,,0.18,Wunderground v.1.15,2013-05-01 03:31:00,
2013-04-30 20:36:00,46.7,35.2,30.46,South,189,0.0,0.0,64,0.00,,,0.18,Wunderground v.1.15,2013-05-01 03:36:00,
2013-04-30 20:46:00,45.7,35.0,30.46,South,189,0.0,0.0,66,0.00,,,0.18,Wunderground v.1.15,2013-05-01 03:46:00,
2013-04-30 20:51:00,45.2,34.5,30.46,South,189,0.0,0.0,66,0.00,,,0.18,Wunderground v.1.15,2013-05-01 03:51:00,
2013-04-30 20:56:00,44.9,34.6,30.46,South,189,0.0,0.0,67,0.00,,,0.18,Wunderground v.1.15,2013-05-01 03:56:00,
2013-04-30 21:01:00,44.5,34.6,30.46,South,189,0.0,0.0,68,0.00,,,0.18,Wunderground v.1.15,2013-05-01 04:01:00,
2013-04-30 21:11:00,43.9,34.7,30.47,South,189,0.0,0.0,70,0.00,,,0.18,Wunderground v.1.15,2013-05-01 04:11:00,
2013-04-30 21:16:00,43.5,34.7,30.47,South,189,0.0,0.0,71,0.00,,,0.18,Wunderground v.1.15,2013-05-01 04:16:00,
2013-04-30 21:26:00,42.9,34.8,30.47,South,189,0.0,0.0,73,0.00,,,0.18,Wunderground v.1.15,2013-05-01 04:26:00,
2013-04-30 21:36:00,42.3,34.9,30.48,South,189,0.0,0.0,75,0.00,,,0.18,Wunderground v.1.15,2013-05-01 04:36:00,
2013-04-30 21:46:00,41.8,34.5,30.48,South,189,0.0,0.0,75,0.00,,,0.18,Wunderground v.1.15,2013-05-01 04:46:00,
2013-04-30 21:56:00,41.5,34.8,30.48,South,189,0.0,0.0,77,0.00,,,0.18,Wunderground v.1.15,2013-05-01 04:56:00,
2013-04-30 22:06:00,41.1,34.8,30.49,South,189,0.0,0.0,78,0.00,,,0.18,Wunderground v.1.15,2013-05-01 05:06:00,
2013-04-30 22:16:00,40.6,34.6,30.49,South,189,0.0,0.0,79,0.00,,,0.18,Wunderground v.1.15,2013-05-01 05:16:00,
2013-04-30 22:26:00,40.2,34.5,30.49,South,189,0.0,0.0,80,0.00,,,0.18,Wunderground v.1.15,2013-05-01 05:26:00,
2013-04-30 22:31:00,40.1,34.7,30.49,South,189,0.0,0.0,81,0.00,,,0.18,Wunderground v.1.15,2013-05-01 05:31:00,
2013-04-30 22:36:00,39.9,34.5,30.50,South,188,0.0,1.0,81,0.00,,,0.18,Wunderground v.1.15,2013-05-01 05:36:00,
2013-04-30 22:46:00,39.5,34.5,30.50,South,188,0.0,0.0,82,0.00,,,0.18,Wunderground v.1.15,2013-05-01 05:46:00,
2013-04-30 22:56:00,39.2,34.5,30.50,South,188,0.0,0.0,83,0.00,,,0.18,Wunderground v.1.15,2013-05-01 05:56:00,
2013-04-30 23:06:00,38.9,34.5,30.50,South,188,0.0,0.0,84,0.00,,,0.18,Wunderground v.1.15,2013-05-01 06:06:00,
2013-04-30 23:16:00,38.6,34.2,30.50,South,188,0.0,0.0,84,0.00,,,0.18,Wunderground v.1.15,2013-05-01 06:16:00,
2013-04-30 23:26:00,38.3,33.9,30.51,South,188,0.0,0.0,84,0.00,,,0.18,Wunderground v.1.15,2013-05-01 06:26:00,
2013-04-30 23:36:00,37.9,34.1,30.51,South,188,0.0,0.0,86,0.00,,,0.18,Wunderground v.1.15,2013-05-01 06:36:00,
2013-04-30 23:46:00,37.6,33.8,30.51,South,188,0.0,0.0,86,0.00,,,0.18,Wunderground v.1.15,2013-05-01 06:46:00,
2013-04-30 23:56:00,37.2,33.7,30.51,South,188,0.0,0.0,87,0.00,,,0.18,Wunderground v.1.15,2013-05-01 06:56:00,